| time (UTC) | temp C | wind direction | speed KPH | gust KPH | rain 1hr cm | rain 24hr cm | rain mn cm | humidity % | barometer mb |
| 20260831194952 | 29 | 48 | 8.0 | 17.7 | 0.00 | 0.91 | 0.91 | 81 | 1016.2 |
| 20260831194013 | 29 | 350 | 9.7 | 17.7 | 0.00 | 0.91 | 0.91 | 81 | 1016.2 |
| 20260831193007 | 30 | 26 | 6.4 | 14.5 | 0.00 | 0.91 | 0.91 | 82 | 1016.1 |
| 20260831191946 | 30 | 36 | 8.0 | 16.1 | 0.00 | 0.91 | 0.91 | 81 | 1016.2 |
| 20260831190912 | 30 | 5 | 8.0 | 17.7 | 0.00 | 0.91 | 0.91 | 81 | 1016.3 |
| 20260831185852 | 30 | 15 | 9.7 | 17.7 | 0.00 | 0.91 | 0.91 | 82 | 1016.4 |
| 20260831184839 | 30 | 28 | 9.7 | 17.7 | 0.00 | 0.91 | 0.91 | 82 | 1016.2 |
| 20260831183849 | 30 | 5 | 11.3 | 19.3 | 0.00 | 0.91 | 0.91 | 81 | 1016.3 |
| 20260831182905 | 30 | 38 | 9.7 | 19.3 | 0.00 | 0.91 | 0.91 | 79 | 1016.4 |
| 20260831181912 | 30 | 46 | 8.0 | 19.3 | 0.00 | 0.94 | 0.91 | 79 | 1016.2 |
| 20260831180859 | 30 | 0 | 9.7 | 17.7 | 0.00 | 0.94 | 0.91 | 80 | 1016.3 |
| 20260831174757 | 30 | 36 | 8.0 | 19.3 | 0.00 | 1.02 | 0.91 | 80 | 1016.5 |
| 20260831173728 | 30 | 5 | 9.7 | 17.7 | 0.00 | 1.09 | 0.91 | 80 | 1016.7 |
| 20260831172732 | 30 | 58 | 11.3 | 17.7 | 0.00 | 1.14 | 0.91 | 81 | 1016.6 |
| 20260831171716 | 30 | 23 | 9.7 | 19.3 | 0.00 | 1.17 | 0.91 | 81 | 1016.7 |
| 20260831170733 | 30 | 24 | 11.3 | 19.3 | 0.00 | 1.22 | 0.91 | 81 | 1016.8 |
| 20260831165713 | 30 | 53 | 8.0 | 16.1 | 0.00 | 1.22 | 0.91 | 82 | 1016.8 |
| 20260831164711 | 30 | 34 | 9.7 | 17.7 | 0.00 | 1.24 | 0.91 | 82 | 1016.7 |
| 20260831162444 | 30 | 37 | 8.0 | 16.1 | 0.00 | 1.27 | 0.91 | 82 | 1017.1 |
| 20260831161437 | 30 | 11 | 9.7 | 14.5 | 0.00 | 1.27 | 0.91 | 81 | 1017.4 |
| 20260831160444 | 30 | 29 | 8.0 | 14.5 | 0.00 | 1.27 | 0.91 | 80 | 1017.4 |
| 20260831155438 | 30 | 56 | 8.0 | 12.9 | 0.00 | 1.27 | 0.91 | 79 | 1017.6 |
| 20260831154407 | 30 | 5 | 6.4 | 12.9 | 0.00 | 1.27 | 0.91 | 80 | 1017.4 |
| 20260831153424 | 30 | 38 | 6.4 | 14.5 | 0.00 | 1.27 | 0.91 | 81 | 1017.5 |
| 20260831152422 | 30 | 47 | 6.4 | 14.5 | 0.00 | 1.27 | 0.91 | 80 | 1017.5 |
| 20260831151349 | 29 | 44 | 6.4 | 12.9 | 0.00 | 1.27 | 0.91 | 80 | 1017.5 |
| 20260831150355 | 29 | 33 | 6.4 | 12.9 | 0.00 | 1.27 | 0.91 | 81 | 1017.3 |
| 20260831145330 | 29 | 16 | 4.8 | 12.9 | 0.00 | 1.27 | 0.91 | 81 | 1017.1 |
| 20260831144257 | 29 | 26 | 6.4 | 12.9 | 0.00 | 1.27 | 0.91 | 81 | 1017.3 |
| 20260831143244 | 29 | 15 | 8.0 | 12.9 | 0.00 | 1.27 | 0.91 | 81 | 1017.3 |
| 20260831142237 | 29 | 5 | 6.4 | 12.9 | 0.00 | 1.27 | 0.91 | 81 | 1017.3 |
| 20260831141245 | 29 | 15 | 8.0 | 11.3 | 0.00 | 1.27 | 0.91 | 81 | 1017.2 |
| 20260831140236 | 29 | 57 | 4.8 | 9.7 | 0.00 | 1.27 | 0.91 | 81 | 1017.1 |
| 20260831135206 | 29 | 321 | 3.2 | 12.9 | 0.00 | 1.27 | 0.91 | 82 | 1017.1 |
| 20260831134221 | 28 | 349 | 6.4 | 12.9 | 0.00 | 1.27 | 0.91 | 83 | 1017.0 |
| 20260831133146 | 28 | 5 | 6.4 | 11.3 | 0.00 | 1.27 | 0.91 | 82 | 1016.9 |
| 20260831132205 | 28 | 355 | 4.8 | 11.3 | 0.00 | 1.27 | 0.91 | 84 | 1016.8 |
| 20260831131144 | 28 | 15 | 3.2 | 9.7 | 0.00 | 1.27 | 0.91 | 85 | 1016.6 |
| 20260831130158 | 28 | 355 | 4.8 | 9.7 | 0.00 | 1.27 | 0.91 | 85 | 1016.6 |
| 20260831125145 | 28 | 355 | 4.8 | 9.7 | 0.00 | 1.27 | 0.91 | 85 | 1016.5 |
| 20260831124143 | 28 | 13 | 1.6 | 6.4 | 0.00 | 1.27 | 0.91 | 86 | 1016.3 |
| 20260831123143 | 27 | 0 | 3.2 | 6.4 | 0.00 | 1.27 | 0.91 | 87 | 1016.5 |
| 20260831122107 | 27 | 342 | 3.2 | 4.8 | 0.00 | 1.27 | 0.91 | 87 | 1016.5 |
| 20260831121029 | 27 | 355 | 1.6 | 4.8 | 0.00 | 1.24 | 0.89 | 87 | 1016.4 |
| 20260831115959 | 27 | 9 | 1.6 | 4.8 | 0.00 | 1.24 | 0.89 | 87 | 1016.2 |
| 20260831113847 | 26 | 9 | 1.6 | 3.2 | 0.00 | 1.24 | 0.89 | 87 | 1016.1 |
| 20260831112841 | 26 | 21 | 1.6 | 4.8 | 0.00 | 1.24 | 0.89 | 87 | 1016.0 |
| 20260831111816 | 26 | 13 | 1.6 | 4.8 | 0.00 | 1.24 | 0.89 | 87 | 1015.8 |
| 20260831110834 | 26 | 16 | 1.6 | 3.2 | 0.00 | 1.24 | 0.89 | 86 | 1015.6 |
| 20260831105816 | 26 | 16 | 1.6 | 3.2 | 0.00 | 1.24 | 0.89 | 86 | 1015.5 |
| 20260831103714 | 26 | 0 | 0.0 | 3.2 | 0.00 | 1.24 | 0.89 | 85 | 1015.3 |
| 20260831102706 | 27 | 329 | 1.6 | 3.2 | 0.00 | 1.24 | 0.89 | 85 | 1015.2 |
| 20260831101713 | 26 | 5 | 0.0 | 1.6 | 0.00 | 1.24 | 0.89 | 84 | 1015.2 |
| 20260831100702 | 26 | 128 | 0.0 | 0.0 | 0.00 | 1.24 | 0.89 | 83 | 1015.3 |
| 20260831095638 | 26 | 128 | 0.0 | 4.8 | 0.00 | 1.24 | 0.89 | 83 | 1015.1 |
| 20260831094658 | 26 | 143 | 1.6 | 4.8 | 0.00 | 1.24 | 0.89 | 83 | 1015.0 |
| 20260831093632 | 26 | 131 | 0.0 | 4.8 | 0.00 | 1.24 | 0.89 | 84 | 1015.0 |
| 20260831092603 | 26 | 147 | 1.6 | 4.8 | 0.00 | 1.24 | 0.89 | 84 | 1015.0 |
| 20260831090447 | 26 | 113 | 1.6 | 6.4 | 0.00 | 1.24 | 0.89 | 86 | 1015.1 |
| 20260831085422 | 26 | 124 | 1.6 | 3.2 | 0.00 | 1.24 | 0.89 | 86 | 1015.1 |
| 20260831084359 | 26 | 109 | 1.6 | 3.2 | 0.00 | 1.24 | 0.89 | 86 | 1015.1 |
| 20260831083334 | 26 | 121 | 0.0 | 3.2 | 0.00 | 1.24 | 0.89 | 86 | 1015.2 |
| 20260831082331 | 26 | 68 | 0.0 | 0.0 | 0.00 | 1.24 | 0.89 | 86 | 1015.2 |
| 20260831080203 | 25 | 68 | 0.0 | 1.6 | 0.00 | 1.24 | 0.89 | 86 | 1015.3 |
| 20260831075202 | 25 | 68 | 0.0 | 1.6 | 0.00 | 1.24 | 0.89 | 86 | 1015.2 |
| 20260831074210 | 25 | 68 | 0.0 | 1.6 | 0.00 | 1.24 | 0.89 | 86 | 1015.1 |
| 20260831073137 | 25 | 68 | 0.0 | 0.0 | 0.00 | 1.24 | 0.89 | 86 | 1015.2 |
| 20260831072155 | 25 | 63 | 1.6 | 4.8 | 0.00 | 1.24 | 0.89 | 86 | 1015.4 |
| 20260831071121 | 25 | 36 | 3.2 | 12.9 | 0.10 | 1.24 | 0.89 | 86 | 1015.4 |
| 20260831064951 | 26 | 69 | 1.6 | 12.9 | 0.79 | 1.14 | 0.79 | 87 | 1015.9 |
| 20260831063933 | 26 | 121 | 6.4 | 22.5 | 0.28 | 1.04 | 0.66 | 86 | 1015.9 |
| 20260831062918 | 27 | 119 | 11.3 | 22.5 | 0.28 | 0.91 | 0.58 | 86 | 1015.9 |
| 20260831061844 | 27 | 140 | 12.9 | 20.9 | 0.00 | 0.48 | 0.13 | 83 | 1016.1 |
| 20260831060816 | 27 | 119 | 4.8 | 9.7 | 0.00 | 0.48 | 0.13 | 84 | 1016.0 |
| 20260831055823 | 27 | 162 | 3.2 | 16.1 | 0.10 | 0.48 | 0.13 | 85 | 1015.9 |
| 20260831054800 | 27 | 142 | 3.2 | 16.1 | 0.41 | 0.48 | 0.13 | 85 | 1016.0 |
| 20260831051517 | 27 | 67 | 0.0 | 0.0 | 0.00 | 0.36 | 0.00 | 84 | 1016.3 |
| 20260831050441 | 27 | 67 | 0.0 | 0.0 | 0.00 | 0.36 | 0.00 | 84 | 1016.3 |
| 20260831045457 | 27 | 27 | 0.0 | 3.2 | 0.00 | 0.36 | 0.00 | 84 | 1016.5 |
| 20260831044425 | 27 | 53 | 0.0 | 0.0 | 0.00 | 0.36 | 0.00 | 84 | 1016.6 |
| 20260831043443 | 27 | 53 | 0.0 | 0.0 | 0.00 | 0.36 | 0.00 | 84 | 1016.5 |
| 20260831040212 | 27 | 53 | 0.0 | 0.0 | 0.00 | 0.36 | 0.00 | 84 | 1016.8 |
| 20260831034041 | 27 | 53 | 0.0 | 0.0 | 0.00 | 0.36 | 0.36 | 83 | 1016.9 |
| 20260831033015 | 27 | 53 | 0.0 | 0.0 | 0.00 | 0.36 | 0.36 | 83 | 1016.9 |
| 20260831032024 | 27 | 53 | 0.0 | 0.0 | 0.00 | 0.36 | 0.36 | 83 | 1016.8 |
| 20260831030955 | 27 | 42 | 0.0 | 0.0 | 0.00 | 0.36 | 0.36 | 83 | 1016.9 |
| 20260831025946 | 27 | 73 | 1.6 | 3.2 | 0.00 | 0.36 | 0.36 | 82 | 1016.9 |
| 20260831023748 | 27 | 57 | 0.0 | 0.0 | 0.00 | 0.36 | 0.36 | 82 | 1016.7 |
| 20260831022808 | 27 | 71 | 0.0 | 0.0 | 0.00 | 0.36 | 0.36 | 82 | 1016.8 |
| 20260831021826 | 27 | 76 | 0.0 | 0.0 | 0.00 | 0.36 | 0.36 | 82 | 1016.7 |
| 20260831020800 | 27 | 67 | 1.6 | 4.8 | 0.00 | 0.36 | 0.36 | 82 | 1016.7 |
| 20260831015725 | 27 | 69 | 1.6 | 6.4 | 0.00 | 0.36 | 0.36 | 81 | 1016.9 |
| 20260831014712 | 27 | 75 | 3.2 | 8.0 | 0.00 | 0.36 | 0.36 | 81 | 1016.8 |
| 20260831013636 | 27 | 63 | 3.2 | 11.3 | 0.00 | 0.36 | 0.36 | 81 | 1016.8 |
| 20260831012650 | 27 | 71 | 3.2 | 11.3 | 0.00 | 0.36 | 0.36 | 80 | 1016.9 |
| 20260831011618 | 27 | 21 | 3.2 | 11.3 | 0.00 | 0.36 | 0.36 | 81 | 1016.9 |
| 20260831010638 | 27 | 40 | 3.2 | 11.3 | 0.00 | 0.36 | 0.36 | 81 | 1017.0 |
| 20260831005640 | 27 | 61 | 3.2 | 8.0 | 0.00 | 0.36 | 0.36 | 81 | 1016.9 |
| 20260831003511 | 27 | 49 | 3.2 | 9.7 | 0.00 | 0.36 | 0.36 | 82 | 1016.8 |
| 20260831002520 | 27 | 48 | 3.2 | 9.7 | 0.00 | 0.36 | 0.36 | 82 | 1016.7 |
| 20260831001504 | 27 | 40 | 3.2 | 6.4 | 0.00 | 0.36 | 0.36 | 81 | 1016.6 |
| 20260831000442 | 27 | 24 | 3.2 | 6.4 | 0.00 | 0.36 | 0.36 | 80 | 1016.6 |
| 20260830235443 | 27 | 35 | 1.6 | 6.4 | 0.00 | 0.36 | 0.36 | 80 | 1016.6 |
| 20260830234440 | 28 | 16 | 1.6 | 6.4 | 0.00 | 0.36 | 0.36 | 79 | 1016.5 |
| 20260830233429 | 28 | 35 | 3.2 | 6.4 | 0.00 | 0.36 | 0.36 | 78 | 1016.5 |
| 20260830232411 | 28 | 56 | 3.2 | 6.4 | 0.00 | 0.36 | 0.36 | 77 | 1016.3 |
| 20260830225132 | 28 | 54 | 1.6 | 4.8 | 0.00 | 0.36 | 0.36 | 77 | 1015.9 |
| 20260830224134 | 28 | 115 | 3.2 | 9.7 | 0.00 | 0.41 | 0.36 | 77 | 1015.9 |
| 20260830223101 | 28 | 81 | 3.2 | 9.7 | 0.00 | 0.41 | 0.36 | 77 | 1015.9 |
| 20260830222054 | 28 | 104 | 3.2 | 9.7 | 0.00 | 0.41 | 0.36 | 77 | 1015.9 |
| 20260830215907 | 28 | 98 | 0.0 | 4.8 | 0.00 | 0.41 | 0.36 | 74 | 1015.7 |
| 20260830213740 | 28 | 78 | 1.6 | 4.8 | 0.00 | 0.41 | 0.36 | 76 | 1015.7 |
| 20260830210444 | 28 | 36 | 3.2 | 9.7 | 0.00 | 0.41 | 0.36 | 77 | 1015.7 |
| 20260830205454 | 28 | 65 | 4.8 | 9.7 | 0.00 | 0.41 | 0.36 | 77 | 1015.8 |
| 20260830204434 | 28 | 34 | 3.2 | 8.0 | 0.00 | 0.41 | 0.36 | 76 | 1015.8 |
| 20260830201147 | 28 | 58 | 1.6 | 8.0 | 0.00 | 0.89 | 0.36 | 78 | 1016.3 |
| 20260830200110 | 28 | 49 | 1.6 | 8.0 | 0.00 | 0.89 | 0.36 | 79 | 1016.4 |
| 20260830195128 | 27 | 246 | 0.0 | 3.2 | 0.00 | 0.89 | 0.36 | 79 | 1016.4 |